Regional Weather Roundup
Issued by NWS

Home | Current Version | Previous Version | Text Only | Print | Product List | Glossary Off
Versions: 1 2 3 4 5 6 7 8 9 10 11 12 13 14 15 16 17 18 19 20 21 22 23 24 25 26 27 28 29 30 31 32 33 34 35 36 37 38 39 40 41 42 43 44 45 46 47 48 49 50

000
ASUS43 KLOT 291406
RWRIL

ILLINOIS REGIONAL WEATHER ROUNDUP
NATIONAL WEATHER SERVICE CHICAGO/ROMEOVILLE IL
800 AM CST MON DEC 29 2014

NOTE: "FAIR" INDICATES FEW OR NO CLOUDS BELOW 12,000 FEET WITH NO
SIGNIFICANT WEATHER AND/OR OBSTRUCTIONS TO VISIBILITY.

* THESE STATIONS ARE NOT UNDER NWS QUALITY CONTROL. THEY ALSO MAY NOT
  REPORT WEATHER SUCH AS PRECIPITATION OR FOG.

ILZ001-002-007-009-015-016-024-291500-
NORTHWEST ILLINOIS

CITY           SKY/WX    TMP DP  RH WIND       PRES   REMARKS
MOLINE         MOCLDY    25  20  81 E7        30.35R WCI  17
STERLING*      PTCLDY    25  19  80 NE8       30.35R WCI  16
SAVANNA*       CLOUDY    24  18  75 N5        30.37R WCI  19
$$

ILZ003-004-008-010-011-017-018-291500-
NORTH CENTRAL ILLINOIS

CITY           SKY/WX    TMP DP  RH WIND       PRES   REMARKS
ROCKFORD       CLOUDY    24  17  74 N13       30.37R WCI  12
FREEPORT*      CLOUDY    21  17  84 N10       30.38R WCI  10
ROCHELLE*      CLOUDY    23  20  88 NE12      30.34S FOG     WCI  12
DE KALB*       MOCLDY    22  19  89 N8        30.34R FOG     WCI  12
PERU*          CLOUDY    27  22  84 NE8       30.34R WCI  18
$$

ILZ005-006-012>014-019>023-291500-
NORTHEAST ILLINOIS

CITY           SKY/WX    TMP DP  RH WIND       PRES   REMARKS
CHICAGO-OHARE  MOCLDY    25  19  78 N10       30.33R WCI  15
CHICAGO-MIDWAY MOCLDY    30  24  78 N8        30.33R WCI  22
AURORA         CLOUDY    26  20  77 NE10      30.33R HAZE    WCI  16
LANSING*       PTCLDY    26  22  84 CALM      30.32R
JOLIET*        CLOUDY    25  21  82 N6        30.33R WCI  18
WAUKEGAN       PTCLDY    22  16  78 NW8       30.35R WCI  12
DUPAGE AIRPORT CLOUDY    24  19  81 N8        30.33R WCI  15
KANKAKEE*      CLEAR     22  19  91 CALM      30.33R
WHEELING       PTCLDY    24  18  77 N8        30.36R WCI  15
MORRIS*        CLOUDY    24  21  89 CALM      30.32R
ROMEOVILLE*    CLOUDY    27  22  83 N9        30.33R WCI  17
NORTHERLY ISL    N/A     31  24  76 N13         N/A  WCI  21
$$

LMZ740>746-291500-
SOUTHERN LAKE MICHIGAN

STATION/POSITION SKY/WX   TEMP    WIND        PRES    VSBY  WAVE
                          AIR SEA DIR/SP/G                  HT/PER
                          (F)     (DEG/KT/KT) (MB)    (MI)  (FT/S)
WAUKEGAN HARBOR            24     340/  7/ 11   N/A
HARRISON CRIB              31      10/ 16/ 19   N/A
BURNHAM HARBOR             31      10/ 13/ 15   N/A
CALUMET HARBOR             32     360/ 12/ 16 1025.5R
MICHIGAN CITY              32      10/ 16/ 19   N/A
$$

ILZ025>027-034>036-040-047-049-050-058-095>099-291500-
WEST-CENTRAL ILLINOIS

CITY           SKY/WX    TMP DP  RH WIND       PRES   REMARKS
QUINCY         CLEAR     23  20  88 E6        30.29R WCI  16
GALESBURG*     CLEAR     19  16  88 N3        30.33R
MACOMB*        CLEAR     20  19  96 CALM      30.33S
JACKSONVILLE*  PTCLDY    20  18  89 CALM      30.32R
PITTSFIELD*    CLEAR     23  21  93 CALM      30.31R
$$

ILZ028>032-037-038-041>044-048-051>054-059>061-291500-
CENTRAL ILLINOIS

CITY           SKY/WX    TMP DP  RH WIND       PRES   REMARKS
PONTIAC        CLEAR     21  18  88 N3        30.34R
BLOOMINGTON    CLEAR     21  19  92 NE3       30.31R
DECATUR        CLEAR     21  18  88 N5        30.31R WCI  15
PEORIA         CLEAR     22  18  85 NE6       30.32S FOG     WCI  14
LACON*         CLEAR     18  15  90 CALM      30.33R FOG
LINCOLN*       CLEAR     20  19  92 CALM      30.33R
SPRINGFIELD    CLEAR     21  17  84 CALM      30.31S
TAYLORVILLE    CLEAR     23  21  93 NE3       30.31R
$$

ILZ033-039-045-046-055>057-062-063-291500-
EAST-CENTRAL ILLINOIS

CITY           SKY/WX    TMP DP  RH WIND       PRES   REMARKS
CHAMPAIGN      CLEAR     24  17  74 NE6       30.29F WCI  17
DANVILLE*      CLEAR     20  19  93 CALM      30.28S
RANTOUL*       CLEAR     24  19  83 N6        30.30S WCI  17
MATTOON        CLEAR     21  19  92 N5        30.30R WCI  15
PARIS*         CLEAR     22  22  98 CALM      30.31R FOG
$$

ILZ079-100>102-291500-
SOUTHWEST ILLINOIS

CITY           SKY/WX    TMP DP  RH WIND       PRES   REMARKS
BELLEVILLE     CLEAR     21  21  98 N2        30.30R
CAHOKIA*       CLEAR     22  20  92 CALM      30.31R
SPARTA*        PTCLDY    24  23  94 CALM      30.30R FOG
$$

ILZ064>066-069>071-074>076-080>082-084>086-088>090-092>094-291500-
SOUTH-CENTRAL ILLINOIS

CITY           SKY/WX    TMP DP  RH WIND       PRES   REMARKS
CARBONDALE     CLEAR     26  23  88 N5        30.29R WCI  20
CAIRO*         CLOUDY    32  27  82 NE7       30.28R WCI  26
EFFINGHAM*     CLEAR     25  22  87 CALM      30.31S
MARION         PTCLDY    25  23  93 N6        30.30R WCI  18
MT. VERNON     CLEAR     23  18  80 N3        30.29S
CENTRALIA*     CLEAR     25  22  89 NE3       30.29S FOG
SALEM*         CLEAR     27  24  89 NE5       30.29S FOG     WCI  21
METROPOLIS*    CLOUDY    31  28  87 N6        30.27R WCI  25
$$

ILZ067-068-072-073-078-083-087-091-291500-
SOUTHEAST ILLINOIS

CITY           SKY/WX    TMP DP  RH WIND       PRES   REMARKS
LAWRENCEVILLE  CLEAR     24  22  91 NE6       30.31R FOG     WCI  17
FLORA*         CLEAR     25  24  96 N3        30.30S
FAIRFIELD*     CLEAR     25  23  93 N5        30.29R FOG     WCI  19
HARRISBURG*    CLOUDY    27  26  98 N6        30.31R FOG     WCI  20
ROBINSON*      CLEAR     23  22  97 N6        30.32R WCI  16
CARMI*         CLOUDY    29  29  97 N6        30.29R WCI  23
$$

ABBREVIATIONS USED IN REMARKS
   TC - TEMPERATURE IN CELSIUS
  WCI - WIND CHILL INDEX
   HX - HEAT INDEX
  VSB - VISIBILITY
$$




USA.gov is the U.S. government's official web portal to all federal, state and local government web resources and services.